QPF
0.00 0.00 0.00 0.00 0.01 0.01 0.01 0.00 0.00 0.00 0.00 0.00 0.00 0.00 0.00 0.00 0.00 0.00 0.00 0.00 0.00 0.00 0.01 0.01 0.01 0.02 0.02 0.02 0.02 0.03 0.04 0.04 0.03 0.03 0.03 0.03 0.03 0.02 0.02 0.02 0.03 0.04 0.05 0.05
0.00 0.00 0.00 0.00 0.01 0.01 0.01 0.00 0.00 0.00 0.00 0.00 0.00 0.00 0.00 0.00 0.00 0.00 0.00 0.00 0.00 0.00 0.00 0.00 0.01 0.01 0.02 0.02 0.02 0.03 0.04 0.04 0.04 0.03 0.03 0.02 0.02 0.03 0.03 0.03 0.04 0.04 0.04 0.04
0.00 0.00 0.00 0.01 0.01 0.02 0.01 0.00 0.01 0.01 0.00 0.00 0.00 0.00 0.01 0.00 0.00 0.00 0.00 0.00 0.00 0.00 0.00 0.01 0.01 0.02 0.02 0.03 0.03 0.04 0.04 0.04 0.03 0.03 0.02 0.02 0.02 0.04 0.04 0.03 0.03 0.03 0.03 0.03
0.01 0.01 0.01 0.01 0.01 0.01 0.02 0.01 0.01 0.01 0.01 0.00 0.01 0.01 0.01 0.01 0.00 0.00 0.00 0.00 0.00 0.00 0.01 0.02 0.02 0.02 0.02 0.02 0.03 0.04 0.04 0.04 0.04 0.04 0.03 0.03 0.03 0.04 0.03 0.03 0.03 0.03 0.04 0.03
0.02 0.02 0.01 0.01 0.01 0.01 0.02 0.02 0.02 0.02 0.01 0.02 0.01 0.01 0.01 0.01 0.01 0.01 0.00 0.00 0.00 0.00 0.01 0.02 0.03 0.02 0.02 0.02 0.03 0.05 0.04 0.03 0.03 0.04 0.03 0.02 0.02 0.04 0.04 0.04 0.04 0.03 0.03 0.03
0.03 0.03 0.02 0.01 0.01 0.01 0.04 0.06 0.03 0.02 0.02 0.02 0.02 0.03 0.02 0.01 0.01 0.01 0.01 0.01 0.01 0.01 0.01 0.02 0.02 0.02 0.03 0.04 0.04 0.06 0.07 0.06 0.05 0.05 0.04 0.04 0.05 0.05 0.06 0.05 0.05 0.05 0.05 0.05
0.04 0.04 0.03 0.01 0.01 0.03 0.09 0.13 0.07 0.03 0.02 0.03 0.03 0.03 0.03 0.02 0.03 0.03 0.01 0.01 0.01 0.01 0.01 0.02 0.02 0.03 0.04 0.04 0.04 0.05 0.07 0.08 0.08 0.07 0.06 0.07 0.08 0.08 0.08 0.06 0.05 0.06 0.07 0.07
0.05 0.05 0.04 0.02 0.02 0.05 0.07 0.06 0.06 0.03 0.02 0.02 0.03 0.03 0.03 0.03 0.03 0.03 0.02 0.02 0.01 0.01 0.01 0.02 0.03 0.03 0.03 0.03 0.05 0.05 0.05 0.06 0.06 0.06 0.07 0.07 0.07 0.09 0.09 0.07 0.06 0.06 0.05 0.05
0.05 0.04 0.03 0.02 0.03 0.04 0.04 0.03 0.04 0.03 0.03 0.02 0.02 0.03 0.03 0.03 0.03 0.02 0.03 0.03 0.02 0.02 0.02 0.02 0.05 0.05 0.06 0.05 0.05 0.04 0.04 0.05 0.06 0.07 0.08 0.08 0.09 0.09 0.10 0.09 0.08 0.07 0.06 0.06
0.05 0.05 0.04 0.04 0.06 0.06 0.06 0.04 0.03 0.03 0.03 0.03 0.03 0.03 0.03 0.03 0.04 0.04 0.04 0.03 0.02 0.02 0.02 0.03 0.06 0.07 0.08 0.07 0.05 0.04 0.04 0.04 0.05 0.07 0.08 0.08 0.09 0.11 0.11 0.11 0.11 0.11 0.11 0.10
0.07 0.06 0.06 0.08 0.08 0.08 0.08 0.06 0.04 0.03 0.04 0.04 0.03 0.05 0.06 0.04 0.04 0.04 0.04 0.03 0.02 0.02 0.02 0.02 0.03 0.04 0.05 0.05 0.04 0.04 0.04 0.05 0.05 0.05 0.05 0.05 0.05 0.06 0.07 0.08 0.08 0.08 0.08 0.09
0.10 0.07 0.08 0.10 0.12 0.09 0.06 0.05 0.05 0.07 0.12 0.11 0.07 0.08 0.11 0.09 0.05 0.05 0.04 0.03 0.03 0.02 0.02 0.02 0.02 0.02 0.03 0.04 0.04 0.05 0.05 0.04 0.03 0.03 0.03 0.03 0.03 0.04 0.05 0.06 0.06 0.06 0.06 0.05
0.08 0.08 0.10 0.10 0.10 0.09 0.09 0.08 0.07 0.12 0.15 0.14 0.10 0.08 0.10 0.09 0.08 0.06 0.04 0.03 0.03 0.03 0.04 0.03 0.02 0.02 0.02 0.03 0.03 0.04 0.04 0.03 0.03 0.03 0.03 0.04 0.04 0.03 0.03 0.04 0.04 0.04 0.04 0.05
0.06 0.07 0.09 0.07 0.08 0.11 0.12 0.11 0.10 0.11 0.14 0.14 0.13 0.12 0.10 0.09 0.08 0.08 0.06 0.04 0.03 0.03 0.02 0.03 0.03 0.03 0.03 0.03 0.03 0.02 0.02 0.02 0.02 0.02 0.02 0.03 0.03 0.04 0.04 0.04 0.05 0.04 0.05 0.05
0.04 0.05 0.05 0.04 0.05 0.08 0.07 0.06 0.06 0.07 0.13 0.16 0.13 0.10 0.08 0.06 0.04 0.02 0.02 0.01 0.01 0.01 0.01 0.01 0.01 0.01 0.01 0.02 0.02 0.02 0.02 0.02 0.02 0.03 0.03 0.03 0.04 0.06 0.06 0.06 0.06 0.05 0.05 0.05
0.05 0.07 0.06 0.04 0.05 0.06 0.06 0.05 0.04 0.04 0.06 0.09 0.10 0.07 0.04 0.02 0.01 0.01 0.00 0.00 0.00 0.00 0.00 0.00 0.00 0.00 0.01 0.01 0.02 0.02 0.02 0.02 0.02 0.03 0.02 0.02 0.03 0.04 0.04 0.04 0.04 0.04 0.03 0.03
0.07 0.07 0.07 0.05 0.04 0.05 0.05 0.04 0.02 0.02 0.02 0.04 0.04 0.02 0.01 0.01 0.00 0.00 0.00 0.00 0.00 0.00 0.00 0.01 0.01 0.01 0.01 0.01 0.01 0.01 0.01 0.02 0.02 0.02 0.02 0.02 0.02 0.02 0.02 0.02 0.01 0.01 0.01 0.01
0.08 0.06 0.06 0.04 0.03 0.03 0.03 0.03 0.02 0.02 0.01 0.01 0.01 0.00 0.00 0.00 0.00 0.00 0.00 0.00 0.00 0.00 0.00 0.01 0.00 0.00 0.01 0.01 0.01 0.01 0.01 0.01 0.01 0.01 0.01 0.01 0.01 0.01 0.01 0.01 0.01 0.01 0.01 0.01
0.08 0.07 0.06 0.05 0.03 0.02 0.02 0.02 0.02 0.02 0.02 0.02 0.01 0.01 0.00 0.00 0.00 0.00 0.00 0.00 0.00 0.00 0.00 0.00 0.00 0.00 0.00 0.01 0.01 0.01 0.01 0.01 0.01 0.01 0.01 0.01 0.01 0.01 0.01 0.00 0.00 0.00 0.01 0.01
0.09 0.07 0.06 0.05 0.03 0.02 0.02 0.02 0.02 0.02 0.01 0.01 0.01 0.01 0.00 0.00 0.00 0.00 0.00 0.00 0.00 0.00 0.00 0.00 0.00 0.01 0.01 0.01 0.01 0.01 0.01 0.01 0.01 0.01 0.01 0.01 0.01 0.01 0.01 0.01 0.01 0.01 0.01 0.01
0.09 0.08 0.06 0.04 0.03 0.02 0.03 0.03 0.03 0.02 0.01 0.01 0.01 0.01 0.01 0.01 0.00 0.00 0.00 0.00 0.00 0.00 0.00 0.00 0.00 0.01 0.01 0.02 0.02 0.02 0.02 0.02 0.01 0.01 0.01 0.01 0.01 0.01 0.01 0.01 0.01 0.01 0.01 0.01
0.09 0.09 0.06 0.04 0.04 0.02 0.02 0.03 0.04 0.03 0.02 0.01 0.01 0.01 0.01 0.01 0.00 0.00 0.00 0.00 0.00 0.00 0.00 0.00 0.00 0.00 0.00 0.00 0.01 0.01 0.01 0.01 0.01 0.01 0.01 0.01 0.01 0.01 0.01 0.01 0.01 0.01 0.01 0.01
0.09 0.08 0.06 0.03 0.03 0.03 0.02 0.03 0.04 0.03 0.01 0.00 0.00 0.00 0.00 0.00 0.00 0.00 0.00 0.00 0.00 0.00 0.00 0.00 0.00 0.00 0.00 0.00 0.00 0.00 0.00 0.00 0.00 0.00 0.00 0.00 0.00 0.00 0.00 0.00 0.00 0.00 0.01 0.01
0.08 0.06 0.04 0.02 0.02 0.02 0.02 0.02 0.02 0.01 0.00 0.00 0.00 0.00 0.00 0.00 0.00 0.00 0.00 0.00 0.00 0.00 0.00 0.00 0.00 0.00 0.00 0.00 0.00 0.00 0.00 0.00 0.00 0.00 0.00 0.00 0.00 0.00 0.00 0.00 0.00 0.00 0.00 0.00
0.07 0.06 0.04 0.03 0.02 0.02 0.02 0.01 0.01 0.00 0.00 0.00 0.00 0.00 0.00 0.00 0.00 0.00 0.00 0.00 0.00 0.00 0.00 0.00 0.00 0.00 0.00 0.00 0.00 0.00 0.00 0.00 0.00 0.00 0.00 0.00 0.00 0.00 0.00 0.00 0.00 0.00 0.00 0.00
0.05 0.05 0.03 0.02 0.02 0.02 0.01 0.01 0.00 0.00 0.00 0.00 0.00 0.00 0.00 0.00 0.00 0.00 0.00 0.00 0.00 0.00 0.00 0.00 0.00 0.00 0.00 0.00 0.00 0.00 0.00 0.00 0.01 0.01 0.01 0.00 0.00 0.00 0.00 0.01 0.01 0.01 0.01 0.01
0.03 0.03 0.02 0.01 0.01 0.01 0.01 0.01 0.01 0.00 0.00 0.00 0.00 0.00 0.00 0.00 0.00 0.00 0.00 0.00 0.00 0.00 0.00 0.00 0.00 0.00 0.00 0.00 0.00 0.00 0.00 0.01 0.01 0.01 0.01 0.00 0.00 0.00 0.00 0.01 0.01 0.01 0.02 0.01
MSLP
1005.25 1005.50 1005.76 1006.02 1006.25 1006.42 1006.50 1006.45 1006.28 1005.98 1005.57 1005.10 1004.63 1004.21 1003.91 1003.74 1003.75 1003.92 1004.23 1004.65 1005.13 1005.65 1006.16 1006.67 1007.15 1007.62 1008.09 1008.56 1009.04 1009.52 1010.00 1010.46 1010.89 1011.27 1011.60 1011.89 1012.15 1012.40 1012.66 1012.95 1013.28 1013.65 1014.05 1014.47
1005.73 1005.93 1006.08 1006.19 1006.24 1006.24 1006.18 1006.05 1005.85 1005.58 1005.26 1004.92 1004.59 1004.30 1004.07 1003.94 1003.91 1003.98 1004.14 1004.38 1004.68 1005.03 1005.41 1005.83 1006.27 1006.74 1007.24 1007.76 1008.30 1008.84 1009.36 1009.84 1010.28 1010.67 1010.99 1011.28 1011.54 1011.80 1012.08 1012.38 1012.72 1013.10 1013.51 1013.93
1006.45 1006.58 1006.60 1006.54 1006.41 1006.23 1006.02 1005.78 1005.54 1005.30 1005.08 1004.87 1004.69 1004.53 1004.41 1004.32 1004.27 1004.25 1004.27 1004.33 1004.44 1004.59 1004.81 1005.09 1005.45 1005.88 1006.38 1006.92 1007.50 1008.08 1008.63 1009.15 1009.60 1009.99 1010.32 1010.61 1010.88 1011.15 1011.43 1011.75 1012.10 1012.49 1012.91 1013.34
1007.32 1007.36 1007.25 1007.02 1006.70 1006.33 1005.96 1005.62 1005.34 1005.13 1004.99 1004.92 1004.89 1004.89 1004.89 1004.87 1004.83 1004.76 1004.66 1004.55 1004.47 1004.43 1004.47 1004.60 1004.85 1005.20 1005.65 1006.19 1006.77 1007.36 1007.93 1008.46 1008.92 1009.31 1009.65 1009.94 1010.21 1010.48 1010.78 1011.11 1011.48 1011.89 1012.31 1012.74
1008.21 1008.16 1007.92 1007.52 1007.02 1006.48 1005.97 1005.53 1005.21 1005.03 1004.98 1005.04 1005.17 1005.33 1005.47 1005.55 1005.55 1005.46 1005.28 1005.06 1004.82 1004.61 1004.48 1004.45 1004.57 1004.82 1005.20 1005.69 1006.24 1006.81 1007.37 1007.88 1008.34 1008.72 1009.05 1009.33 1009.61 1009.89 1010.20 1010.54 1010.93 1011.35 1011.78 1012.21
1009.00 1008.86 1008.50 1007.96 1007.31 1006.63 1006.00 1005.49 1005.15 1005.00 1005.03 1005.22 1005.51 1005.83 1006.12 1006.32 1006.39 1006.32 1006.12 1005.82 1005.47 1005.13 1004.86 1004.70 1004.69 1004.83 1005.12 1005.53 1006.01 1006.53 1007.04 1007.52 1007.94 1008.29 1008.60 1008.87 1009.14 1009.42 1009.74 1010.11 1010.51 1010.94 1011.39 1011.82
1009.61 1009.39 1008.94 1008.30 1007.55 1006.77 1006.07 1005.52 1005.18 1005.07 1005.19 1005.50 1005.93 1006.40 1006.83 1007.15 1007.32 1007.31 1007.13 1006.81 1006.40 1005.99 1005.62 1005.35 1005.23 1005.27 1005.45 1005.76 1006.16 1006.59 1007.03 1007.43 1007.79 1008.10 1008.36 1008.61 1008.87 1009.15 1009.48 1009.85 1010.27 1010.72 1011.17 1011.59
1010.02 1009.76 1009.26 1008.57 1007.77 1006.96 1006.24 1005.69 1005.37 1005.32 1005.52 1005.92 1006.47 1007.07 1007.62 1008.06 1008.33 1008.39 1008.26 1007.97 1007.56 1007.12 1006.70 1006.37 1006.16 1006.10 1006.18 1006.39 1006.68 1007.01 1007.34 1007.65 1007.93 1008.17 1008.38 1008.59 1008.82 1009.09 1009.42 1009.80 1010.23 1010.68 1011.13 1011.55
1010.30 1010.02 1009.52 1008.84 1008.05 1007.27 1006.58 1006.07 1005.81 1005.81 1006.07 1006.55 1007.18 1007.86 1008.51 1009.04 1009.39 1009.54 1009.48 1009.24 1008.87 1008.44 1008.01 1007.65 1007.40 1007.27 1007.26 1007.36 1007.53 1007.75 1007.97 1008.17 1008.35 1008.50 1008.65 1008.81 1009.01 1009.26 1009.57 1009.95 1010.37 1010.82 1011.25 1011.65
1010.54 1010.30 1009.84 1009.21 1008.50 1007.80 1007.18 1006.75 1006.55 1006.60 1006.91 1007.43 1008.10 1008.82 1009.51 1010.09 1010.50 1010.71 1010.72 1010.55 1010.24 1009.86 1009.46 1009.10 1008.82 1008.64 1008.56 1008.57 1008.64 1008.73 1008.83 1008.92 1009.00 1009.06 1009.13 1009.23 1009.39 1009.61 1009.90 1010.26 1010.66 1011.08 1011.48 1011.84
1010.86 1010.67 1010.29 1009.78 1009.18 1008.59 1008.08 1007.74 1007.61 1007.70 1008.03 1008.55 1009.20 1009.91 1010.59 1011.17 1011.61 1011.86 1011.93 1011.82 1011.58 1011.26 1010.92 1010.59 1010.32 1010.11 1009.98 1009.90 1009.87 1009.86 1009.85 1009.83 1009.80 1009.77 1009.77 1009.81 1009.91 1010.09 1010.35 1010.67 1011.03 1011.41 1011.77 1012.08
1011.31 1011.20 1010.93 1010.54 1010.08 1009.62 1009.24 1008.99 1008.92 1009.04 1009.36 1009.84 1010.44 1011.08 1011.70 1012.25 1012.67 1012.93 1013.03 1012.98 1012.81 1012.57 1012.28 1012.00 1011.75 1011.53 1011.36 1011.23 1011.12 1011.01 1010.90 1010.78 1010.67 1010.56 1010.49 1010.47 1010.53 1010.66 1010.87 1011.14 1011.45 1011.78 1012.08 1012.31
1011.88 1011.85 1011.69 1011.43 1011.11 1010.79 1010.53 1010.37 1010.34 1010.47 1010.76 1011.17 1011.68 1012.23 1012.77 1013.24 1013.62 1013.87 1013.99 1013.98 1013.88 1013.70 1013.48 1013.25 1013.02 1012.81 1012.62 1012.44 1012.27 1012.09 1011.91 1011.72 1011.53 1011.37 1011.24 1011.17 1011.18 1011.26 1011.42 1011.63 1011.88 1012.14 1012.36 1012.53
1012.48 1012.52 1012.46 1012.32 1012.13 1011.94 1011.78 1011.69 1011.70 1011.83 1012.07 1012.41 1012.82 1013.26 1013.69 1014.09 1014.40 1014.63 1014.76 1014.79 1014.74 1014.62 1014.46 1014.28 1014.09 1013.90 1013.70 1013.49 1013.28 1013.05 1012.82 1012.58 1012.35 1012.14 1011.98 1011.88 1011.84 1011.88 1011.98 1012.14 1012.32 1012.49 1012.64 1012.73
1013.01 1013.10 1013.12 1013.07 1012.98 1012.89 1012.82 1012.79 1012.83 1012.95 1013.14 1013.41 1013.73 1014.08 1014.42 1014.73 1015.00 1015.21 1015.34 1015.40 1015.40 1015.34 1015.24 1015.11 1014.95 1014.77 1014.58 1014.36 1014.13 1013.87 1013.61 1013.35 1013.10 1012.88 1012.70 1012.57 1012.51 1012.52 1012.57 1012.66 1012.77 1012.87 1012.94 1012.95
1013.35 1013.47 1013.53 1013.56 1013.55 1013.54 1013.53 1013.56 1013.62 1013.74 1013.90 1014.12 1014.37 1014.64 1014.92 1015.18 1015.42 1015.61 1015.76 1015.85 1015.89 1015.89 1015.84 1015.76 1015.63 1015.48 1015.29 1015.08 1014.84 1014.58 1014.32 1014.05 1013.81 1013.59 1013.41 1013.28 1013.21 1013.18 1013.19 1013.22 1013.27 1013.29 1013.29 1013.23
1013.46 1013.58 1013.67 1013.74 1013.79 1013.84 1013.89 1013.96 1014.06 1014.18 1014.34 1014.53 1014.74 1014.98 1015.22 1015.46 1015.69 1015.89 1016.06 1016.20 1016.29 1016.33 1016.33 1016.29 1016.20 1016.07 1015.90 1015.70 1015.47 1015.22 1014.97 1014.72 1014.50 1014.30 1014.13 1014.01 1013.93 1013.88 1013.86 1013.84 1013.82 1013.78 1013.71 1013.60
1013.35 1013.47 1013.57 1013.66 1013.75 1013.85 1013.95 1014.07 1014.20 1014.35 1014.52 1014.72 1014.93 1015.16 1015.40 1015.64 1015.88 1016.11 1016.32 1016.50 1016.64 1016.73 1016.78 1016.78 1016.72 1016.61 1016.47 1016.28 1016.07 1015.85 1015.62 1015.40 1015.20 1015.03 1014.89 1014.78 1014.69 1014.63 1014.57 1014.52 1014.44 1014.35 1014.23 1014.07
1013.13 1013.22 1013.33 1013.44 1013.57 1013.71 1013.86 1014.02 1014.20 1014.39 1014.59 1014.80 1015.03 1015.28 1015.54 1015.81 1016.08 1016.35 1016.60 1016.83 1017.02 1017.16 1017.25 1017.28 1017.26 1017.18 1017.06 1016.90 1016.71 1016.51 1016.31 1016.12 1015.95 1015.80 1015.68 1015.58 1015.49 1015.41 1015.32 1015.23 1015.11 1014.97 1014.80 1014.61
1012.92 1013.01 1013.12 1013.25 1013.41 1013.59 1013.78 1013.99 1014.21 1014.44 1014.68 1014.93 1015.19 1015.46 1015.76 1016.06 1016.37 1016.67 1016.97 1017.23 1017.47 1017.65 1017.78 1017.85 1017.86 1017.81 1017.71 1017.57 1017.41 1017.23 1017.06 1016.89 1016.74 1016.60 1016.49 1016.39 1016.29 1016.19 1016.07 1015.94 1015.79 1015.61 1015.41 1015.20
1012.87 1012.96 1013.08 1013.24 1013.43 1013.65 1013.88 1014.13 1014.39 1014.65 1014.92 1015.20 1015.48 1015.79 1016.10 1016.43 1016.77 1017.10 1017.43 1017.74 1018.01 1018.23 1018.39 1018.49 1018.53 1018.51 1018.44 1018.32 1018.18 1018.02 1017.86 1017.70 1017.55 1017.42 1017.30 1017.18 1017.06 1016.93 1016.79 1016.63 1016.44 1016.24 1016.02 1015.78
1013.06 1013.17 1013.32 1013.50 1013.72 1013.97 1014.24 1014.52 1014.80 1015.09 1015.37 1015.66 1015.97 1016.28 1016.61 1016.95 1017.30 1017.66 1018.01 1018.34 1018.63 1018.88 1019.08 1019.21 1019.28 1019.28 1019.23 1019.13 1019.00 1018.85 1018.69 1018.52 1018.37 1018.22 1018.07 1017.93 1017.78 1017.62 1017.45 1017.26 1017.04 1016.82 1016.58 1016.34
1013.51 1013.65 1013.83 1014.05 1014.30 1014.58 1014.87 1015.17 1015.46 1015.75 1016.04 1016.33 1016.63 1016.93 1017.26 1017.59 1017.95 1018.31 1018.67 1019.01 1019.33 1019.60 1019.82 1019.98 1020.07 1020.10 1020.06 1019.98 1019.85 1019.70 1019.52 1019.34 1019.16 1018.98 1018.80 1018.62 1018.44 1018.24 1018.04 1017.82 1017.59 1017.35 1017.11 1016.87
1014.17 1014.36 1014.58 1014.84 1015.12 1015.42 1015.72 1016.02 1016.31 1016.60 1016.87 1017.15 1017.42 1017.71 1018.02 1018.34 1018.68 1019.03 1019.39 1019.74 1020.06 1020.35 1020.59 1020.76 1020.88 1020.92 1020.90 1020.82 1020.69 1020.53 1020.34 1020.13 1019.91 1019.70 1019.48 1019.26 1019.04 1018.81 1018.58 1018.34 1018.10 1017.86 1017.61 1017.36
1014.97 1015.20 1015.47 1015.76 1016.07 1016.38 1016.69 1016.99 1017.28 1017.54 1017.80 1018.05 1018.30 1018.56 1018.84 1019.14 1019.46 1019.80 1020.14 1020.49 1020.81 1021.11 1021.36 1021.55 1021.67 1021.72 1021.71 1021.63 1021.50 1021.32 1021.11 1020.88 1020.63 1020.37 1020.12 1019.86 1019.61 1019.36 1019.11 1018.86 1018.61 1018.36 1018.12 1017.87
1015.80 1016.09 1016.40 1016.72 1017.05 1017.38 1017.69 1017.98 1018.25 1018.51 1018.74 1018.97 1019.19 1019.43 1019.68 1019.95 1020.25 1020.57 1020.90 1021.24 1021.56 1021.85 1022.10 1022.29 1022.42 1022.48 1022.47 1022.39 1022.25 1022.06 1021.84 1021.58 1021.31 1021.03 1020.75 1020.47 1020.20 1019.94 1019.67 1019.42 1019.17 1018.92 1018.67 1018.42
1016.59 1016.93 1017.27 1017.63 1017.98 1018.31 1018.63 1018.92 1019.18 1019.42 1019.65 1019.85 1020.06 1020.28 1020.51 1020.76 1021.04 1021.34 1021.65 1021.96 1022.27 1022.54 1022.78 1022.97 1023.10 1023.16 1023.15 1023.07 1022.93 1022.74 1022.51 1022.25 1021.98 1021.69 1021.40 1021.12 1020.85 1020.58 1020.32 1020.07 1019.82 1019.57 1019.31 1019.05
Thickness
5748 5752 5752 5750 5749 5750 5748 5753 5750 5756 5759 5762 5764 5763 5764 5765 5767 5766 5764 5762 5761 5758 5757 5755 5753 5751 5749 5748 5746 5744 5740 5738 5735 5733 5732 5731 5729 5728 5727 5725 5725 5723 5722 5720
5733 5742 5743 5740 5745 5747 5747 5750 5750 5751 5751 5760 5761 5760 5757 5757 5759 5760 5760 5759 5758 5757 5755 5754 5753 5752 5750 5749 5747 5745 5741 5738 5737 5735 5733 5731 5730 5729 5727 5726 5725 5723 5721 5720
5722 5732 5729 5724 5739 5741 5743 5747 5746 5742 5746 5751 5749 5746 5746 5748 5751 5753 5755 5756 5755 5755 5754 5754 5754 5754 5751 5750 5748 5744 5741 5740 5738 5736 5734 5732 5731 5729 5727 5725 5724 5721 5720 5718
5716 5712 5698 5727 5742 5740 5736 5738 5743 5741 5742 5742 5741 5740 5741 5742 5742 5744 5747 5750 5751 5752 5753 5753 5754 5753 5752 5750 5747 5744 5741 5740 5738 5735 5733 5731 5730 5728 5726 5724 5722 5719 5717 5716
5707 5703 5710 5718 5726 5727 5723 5721 5729 5729 5731 5735 5736 5735 5731 5732 5734 5735 5739 5742 5745 5748 5750 5750 5750 5750 5749 5747 5745 5741 5739 5737 5737 5735 5732 5729 5727 5725 5723 5721 5718 5716 5715 5713
5698 5693 5694 5708 5717 5722 5716 5705 5716 5719 5720 5723 5726 5722 5719 5720 5723 5726 5729 5734 5738 5742 5743 5743 5744 5746 5743 5741 5739 5736 5736 5735 5734 5732 5729 5726 5723 5721 5719 5717 5715 5713 5711 5709
5688 5688 5698 5704 5710 5712 5695 5695 5706 5710 5711 5713 5712 5710 5708 5710 5712 5715 5718 5723 5728 5730 5731 5733 5736 5737 5735 5733 5731 5731 5730 5729 5727 5726 5723 5721 5719 5717 5714 5712 5709 5707 5705 5702
5682 5678 5681 5695 5699 5693 5690 5697 5699 5700 5702 5702 5701 5700 5700 5701 5702 5705 5708 5712 5715 5717 5718 5721 5725 5726 5724 5723 5723 5723 5722 5720 5718 5717 5716 5714 5711 5709 5707 5704 5701 5698 5695 5693
5677 5675 5680 5686 5684 5685 5688 5688 5690 5691 5693 5694 5691 5689 5690 5691 5693 5694 5697 5700 5703 5705 5705 5707 5710 5712 5711 5711 5713 5713 5712 5710 5708 5706 5705 5704 5702 5699 5697 5694 5692 5689 5686 5684
5667 5669 5671 5673 5675 5677 5680 5681 5683 5685 5686 5685 5681 5680 5679 5681 5682 5683 5686 5688 5690 5692 5693 5693 5696 5698 5700 5701 5702 5702 5700 5698 5696 5694 5693 5691 5690 5688 5686 5684 5681 5678 5676 5674
5659 5660 5661 5662 5664 5666 5668 5671 5674 5675 5676 5674 5672 5670 5669 5669 5670 5671 5673 5675 5677 5678 5679 5679 5682 5684 5686 5688 5690 5688 5687 5686 5684 5683 5681 5677 5675 5673 5672 5667 5667 5666 5665 5663
5653 5655 5655 5652 5655 5659 5659 5659 5661 5662 5660 5660 5660 5658 5657 5656 5656 5658 5660 5662 5663 5664 5666 5667 5669 5671 5673 5675 5676 5676 5674 5673 5673 5672 5669 5668 5665 5659 5651 5651 5648 5646 5644 5644
5651 5653 5651 5648 5650 5651 5650 5650 5651 5650 5649 5648 5647 5647 5646 5645 5645 5646 5647 5648 5649 5651 5653 5655 5656 5658 5661 5663 5664 5664 5662 5661 5662 5661 5659 5656 5654 5652 5647 5639 5634 5631 5629 5627
5645 5645 5640 5640 5640 5642 5642 5642 5641 5640 5639 5638 5636 5635 5635 5634 5634 5635 5635 5637 5639 5641 5642 5644 5644 5645 5647 5649 5650 5650 5651 5649 5650 5649 5648 5647 5644 5644 5641 5638 5633 5627 5619 5613
5638 5640 5637 5635 5635 5635 5634 5634 5632 5630 5629 5627 5626 5625 5625 5624 5624 5625 5627 5629 5630 5631 5631 5633 5633 5633 5636 5638 5638 5638 5639 5638 5637 5637 5637 5635 5633 5632 5629 5625 5622 5619 5615 5607
5630 5631 5630 5628 5627 5627 5627 5626 5624 5622 5620 5619 5618 5617 5617 5617 5617 5618 5619 5620 5621 5620 5621 5622 5623 5624 5626 5627 5628 5627 5625 5622 5625 5627 5626 5624 5622 5619 5616 5613 5610 5606 5601 5596
5624 5623 5623 5622 5621 5621 5621 5620 5619 5617 5615 5614 5613 5612 5612 5612 5611 5610 5611 5611 5611 5611 5612 5612 5612 5614 5616 5616 5618 5619 5618 5615 5612 5616 5613 5610 5608 5605 5602 5600 5596 5592 5586 5578
5622 5621 5621 5619 5618 5617 5615 5614 5613 5612 5610 5609 5609 5608 5607 5605 5604 5603 5603 5604 5603 5603 5602 5602 5602 5604 5604 5604 5605 5607 5607 5606 5604 5602 5598 5595 5592 5591 5588 5584 5581 5577 5572 5567
5616 5615 5614 5613 5612 5611 5609 5608 5608 5607 5606 5606 5604 5601 5599 5598 5597 5596 5596 5596 5595 5593 5591 5591 5589 5593 5593 5591 5592 5594 5594 5593 5591 5588 5584 5578 5579 5576 5572 5568 5564 5560 5556 5551
5608 5607 5607 5606 5606 5605 5604 5602 5601 5599 5598 5598 5596 5593 5591 5590 5589 5588 5587 5586 5584 5582 5580 5579 5581 5581 5580 5579 5578 5581 5580 5577 5575 5572 5569 5566 5562 5559 5555 5551 5547 5543 5538 5534
5599 5599 5598 5597 5597 5597 5597 5595 5593 5591 5590 5590 5587 5585 5582 5581 5581 5581 5580 5577 5570 5569 5569 5567 5569 5567 5566 5564 5564 5565 5563 5560 5557 5554 5551 5547 5544 5540 5536 5532 5529 5525 5521 5518
5590 5589 5588 5588 5588 5587 5587 5586 5585 5583 5582 5581 5579 5577 5575 5573 5572 5570 5566 5564 5560 5555 5559 5558 5554 5548 5548 5548 5551 5549 5546 5543 5540 5537 5534 5530 5527 5523 5519 5515 5512 5508 5505 5502
5580 5580 5580 5579 5579 5578 5578 5577 5576 5575 5574 5572 5570 5569 5568 5565 5565 5562 5557 5552 5550 5544 5545 5539 5533 5531 5531 5538 5536 5533 5530 5526 5523 5520 5517 5513 5510 5507 5503 5500 5497 5494 5491 5488
5572 5572 5572 5572 5572 5570 5569 5568 5568 5567 5565 5563 5561 5559 5557 5556 5552 5549 5543 5535 5533 5532 5530 5522 5519 5519 5520 5524 5521 5518 5514 5510 5507 5504 5502 5499 5496 5493 5490 5487 5484 5480 5477 5474
5563 5563 5563 5563 5562 5562 5560 5560 5559 5557 5556 5554 5552 5549 5548 5545 5541 5536 5532 5527 5521 5521 5520 5513 5509 5508 5511 5510 5507 5503 5500 5495 5492 5489 5487 5484 5482 5479 5476 5473 5470 5467 5465 5462
5555 5555 5554 5554 5555 5555 5556 5555 5553 5551 5549 5546 5543 5539 5536 5532 5528 5526 5522 5518 5514 5510 5510 5506 5503 5500 5499 5496 5493 5489 5486 5482 5480 5477 5474 5471 5469 5466 5463 5460 5457 5456 5453 5451
5547 5547 5546 5547 5547 5548 5548 5546 5544 5541 5539 5535 5531 5528 5525 5522 5518 5515 5512 5509 5506 5503 5499 5496 5493 5490 5487 5484 5480 5476 5473 5470 5467 5464 5462 5459 5456 5454 5452 5449 5448 5446 5444 5443